ISOUTHCR7 Weather Reports


time (UTC)temp
C
wind
direction
speed
KPH
gust
KPH
rain 1hr
cm
rain 24hr
cm
rain mn
cm
humidity
%
barometer
mb
20260506134822 11 32 8.0 19.3 0.00 0.08 0.08 82 1012.7
20260506132602 11 42 9.7 25.7 0.00 0.08 0.08 82 1012.6
20260506131552 11 44 11.3 25.7 0.00 0.08 0.08 81 1012.6
20260506130525 12 56 11.3 25.7 0.00 0.08 0.08 78 1012.6
20260506125517 12 337 9.7 17.7 0.00 0.08 0.08 79 1012.6
20260506123431 11 34 9.7 24.1 0.00 0.08 0.08 82 1012.6
20260506122438 11 36 9.7 24.1 0.00 0.08 0.08 82 1012.7
20260506121449 11 34 9.7 22.5 0.00 0.08 0.08 84 1012.6
20260506120503 10 34 11.3 22.5 0.00 0.08 0.08 83 1012.6
20260506114405 11 29 9.7 24.1 0.00 0.08 0.08 82 1012.6
20260506113348 11 13 8.0 20.9 0.00 0.08 0.08 81 1012.7
20260506112342 11 5 8.0 25.7 0.00 0.08 0.08 82 1012.7
20260506111353 11 5 11.3 25.7 0.00 0.08 0.08 82 1012.6
20260506110401 11 344 9.7 24.1 0.00 0.08 0.08 83 1012.6
20260506105350 10 61 9.7 24.1 0.00 0.08 0.08 83 1012.7
20260506104411 11 350 6.4 20.9 0.00 0.08 0.08 82 1012.7
20260506103346 11 316 8.0 20.9 0.00 0.08 0.08 82 1012.7
20260506102312 11 59 8.0 19.3 0.00 0.08 0.08 82 1012.6
20260506100202 10 5 9.7 24.1 0.00 0.08 0.08 81 1012.6
20260506095215 10 29 9.7 24.1 0.00 0.08 0.08 81 1012.6
20260506093027 11 24 9.7 25.7 0.00 0.08 0.08 80 1012.6
20260506091958 10 11 11.3 25.7 0.00 0.08 0.08 81 1012.5
20260506091016 10 17 11.3 25.7 0.00 0.08 0.08 81 1012.5
20260506084809 10 22 9.7 25.7 0.00 0.08 0.08 84 1012.4
20260506083813 10 14 11.3 30.6 0.00 0.08 0.08 84 1012.3
20260506082743 10 5 14.5 30.6 0.00 0.08 0.08 83 1012.3
20260506080700 10 17 11.3 25.7 0.00 0.08 0.08 85 1012.3
20260506072538 9 9 8.0 29.0 0.00 0.08 0.08 86 1011.9
20260506071550 8 40 11.3 29.0 0.00 0.08 0.08 87 1011.9
20260506070535 9 49 9.7 22.5 0.00 0.08 0.08 87 1011.9
20260506061615 8 35 1.6 12.9 0.13 0.08 0.08 86 1011.5
20260506060636 8 35 3.2 12.9 0.43 0.05 0.05 85 1011.4
20260506051338 8 350 3.2 12.9 0.00 0.00 0.00 86 1011.4
20260506050305 8 15 4.8 12.9 0.00 0.00 0.00 86 1011.5
20260506044238 8 355 1.6 6.4 0.00 0.00 0.00 86 1011.4
20260506043206 8 301 1.6 12.9 0.00 0.00 0.00 86 1011.4
20260506042154 8 304 3.2 12.9 0.00 0.00 0.00 86 1011.4
20260506041126 8 313 4.8 12.9 0.00 0.00 0.00 86 1011.4
20260506040119 8 351 3.2 12.9 0.00 0.00 0.00 86 1011.5
20260506035116 8 339 4.8 12.9 0.00 0.00 0.00 86 1011.5
20260506032948 8 351 4.8 16.1 0.00 0.00 0.00 86 1011.5
20260506031943 8 12 0.0 6.4 0.00 0.00 0.00 86 1011.6
20260506030932 8 301 0.0 3.2 0.00 0.00 0.00 86 1011.7
20260506025953 8 0 1.6 4.8 0.00 0.00 0.00 86 1011.8
20260506024925 8 26 1.6 6.4 0.00 0.00 0.00 86 1011.8
20260506023904 7 34 1.6 6.4 0.00 0.00 0.00 86 1011.9
20260506021734 7 26 0.0 4.8 0.00 0.00 0.00 86 1011.9
20260506015558 7 321 1.6 4.8 0.00 0.00 0.00 85 1012.1
20260506014542 7 320 0.0 6.4 0.00 0.00 0.00 85 1012.0
20260506013516 7 5 1.6 9.7 0.00 0.00 0.00 85 1012.1
20260506012525 8 334 1.6 9.7 0.00 0.00 0.00 85 1012.1
20260506011511 8 296 3.2 9.7 0.00 0.00 0.00 85 1012.2
20260506005309 8 344 3.2 11.3 0.00 0.00 0.00 84 1012.2
20260506004239 8 333 3.2 16.1 0.00 0.00 0.00 84 1012.3
20260506002128 8 342 4.8 16.1 0.00 0.00 0.00 84 1012.4
20260506001143 8 40 4.8 16.1 0.00 0.00 0.00 83 1012.5
20260506000131 8 18 4.8 16.1 0.00 0.00 0.00 83 1012.6
20260505235105 8 5 4.8 12.9 0.00 0.00 0.00 83 1012.6
20260505234058 8 49 3.2 14.5 0.00 0.00 0.00 82 1012.7
20260505233117 9 27 4.8 14.5 0.00 0.00 0.00 81 1012.8
20260505232110 9 9 1.6 14.5 0.00 0.00 0.00 81 1012.8
20260505231044 9 5 3.2 14.5 0.00 0.00 0.00 81 1012.9
20260505230025 9 298 3.2 14.5 0.00 0.00 0.00 81 1013.0
20260505225008 9 35 4.8 14.5 0.00 0.00 0.00 80 1013.0
20260505223950 9 339 3.2 11.3 0.00 0.00 0.00 81 1013.1
20260505222920 9 355 4.8 17.7 0.00 0.00 0.00 80 1013.2
20260505221913 9 5 6.4 17.7 0.00 0.00 0.00 80 1013.1
20260505220905 10 345 4.8 20.9 0.00 0.00 0.00 81 1013.2
20260505215842 10 0 6.4 20.9 0.00 0.00 0.00 81 1013.3
20260505214836 10 31 4.8 16.1 0.00 0.00 0.00 81 1013.3
20260505213845 10 11 4.8 16.1 0.00 0.00 0.00 81 1013.3
20260505212903 10 69 6.4 19.3 0.00 0.00 0.00 81 1013.2
20260505211840 10 47 8.0 19.3 0.00 0.00 0.00 81 1013.3
20260505210807 10 67 6.4 19.3 0.00 0.00 0.00 82 1013.3
20260505205829 10 57 8.0 20.9 0.00 0.00 0.00 82 1013.2
20260505203650 10 41 8.0 20.9 0.00 0.00 0.00 83 1013.2
20260505202701 10 55 9.7 20.9 0.00 0.00 0.00 83 1013.1
20260505201705 10 24 6.4 17.7 0.00 0.00 0.00 83 1013.1
20260505200631 10 20 6.4 19.3 0.00 0.00 0.00 83 1013.1
20260505195607 10 38 8.0 19.3 0.00 0.00 0.00 83 1013.0
20260505194537 10 48 8.0 17.7 0.00 0.00 0.00 82 1012.8
20260505193522 10 22 9.7 24.1 0.00 0.00 0.00 82 1012.8
20260505192506 10 47 6.4 24.1 0.00 0.00 0.00 83 1012.7
20260505191433 10 28 6.4 19.3 0.00 0.00 0.00 83 1012.6
20260505185310 10 25 8.0 19.3 0.00 0.00 0.00 82 1012.4
20260505183146 11 38 8.0 19.3 0.00 0.00 0.00 81 1012.5
20260505182142 11 38 8.0 19.3 0.00 0.00 0.00 81 1012.4
20260505181201 11 36 8.0 19.3 0.00 0.00 0.00 80 1012.4
20260505180147 11 39 8.0 17.7 0.00 0.00 0.00 79 1012.5
20260505175152 11 5 9.7 20.9 0.00 0.00 0.00 78 1012.5
20260505174151 12 333 9.7 25.7 0.00 0.00 0.00 78 1012.4
20260505172018 12 44 9.7 20.9 0.00 0.00 0.00 75 1012.4
20260505171014 12 36 9.7 20.9 0.00 0.00 0.00 74 1012.4
20260505170000 12 15 9.7 20.9 0.00 0.00 0.00 74 1012.4
20260505165021 12 30 8.0 17.7 0.00 0.00 0.00 73 1012.4
20260505164012 13 336 9.7 22.5 0.00 0.00 0.00 73 1012.3
20260505163028 13 355 9.7 22.5 0.00 0.00 0.00 72 1012.2
20260505162026 13 350 11.3 22.5 0.00 0.00 0.00 72 1012.2
20260505160953 13 42 11.3 22.5 0.00 0.00 0.00 72 1012.2
20260505152954 14 36 9.7 20.9 0.00 0.00 0.00 70 1012.3
20260505151944 14 9 9.7 20.9 0.00 0.00 0.00 70 1012.3
20260505140654 16 37 8.0 22.5 0.00 0.00 0.00 68 1012.4